Regional Weather Roundup
Issued by NWS Goodland, KS

Home | Current Version | Previous Version | Text Only | Print | Product List | Glossary On
Versions: 1 2 3 4 5 6 7 8 9 10 11 12 13 14 15 16 17 18 19 20 21 22 23 24 25 26 27 28 29 30 31 32 33 34 35 36 37 38 39 40 41 42 43 44 45 46 47 48 49 50
000
ASUS43 KGLD 251908
RWRGLD

GOODLAND FORECAST AREA HOURLY WEATHER ROUNDUP
NATIONAL WEATHER SERVICE GOODLAND KS
100 PM MDT THU MAY 25 2017

...OFFICIAL OBSERVATIONS...

CITY           SKY/WX    TMP DP  RH WIND       PRES   REMARKS
GOODLAND KS    SUNNY     84  52  33 E9        29.52R
HILL CITY KS   SUNNY     79  54  41 S9        29.49F
IMPERIAL NEB   MOSUNNY   77  52  41 NE10      29.51F
MCCOOK NEB     MOSUNNY   78  53  41 E7        29.49F
AKRON CO       SUNNY     76  47  35 CALM      29.59R
BURLINGTON CO  SUNNY     82  55  39 E5        29.56F
LIMON CO       CLOUDY    77  29  17 W8        29.58F
$$

...UNOFFICIAL OBSERVATIONS...

CITY           SKY/WX    TMP DP  RH WIND       PRES   REMARKS
LENORA KS        N/A     74  32  21 MISG        N/A
NORTON KS      SUNNY     73  52  46 SE7       29.49S
SHARON SPRINGS   N/A     84  54  35 CALM        N/A
TRENTON NEB      N/A     74  32  21 E8          N/A
KIT CARSON CO    N/A     84  48  28 CALM        N/A
YUMA CO        FAIR      75  48  38 E3        29.56S
$$



USA.gov is the U.S. government's official web portal to all federal, state and local government web resources and services.